Home   Weather   Centennial   Past weeks

Flag for USA Past Weather in Centennial, Colorado, USA — Yesterday and Last 2 Weeks

Now
46 °F

Partly cloudy.


Feels Like: 41 °F
Forecast: 21 / 48 °F
Wind: 12 mph from Southeast

Location: Centennial Airport

Current Time: Dec 4, 2016 at 5:40:28 pm

Latest Report: Dec 4, 2016 at 4:53 pm


Visibility: 10 mi

Pressure: 29.87 "Hg (24.05 "Hg at 1781m altitude)

Humidity: 20%

Dew Point: 7 °F

Location of CentennialLocation

Past Weather in Centennial — Graph

°F

Centennial Temperature Yesterday

Maximum temperature yesterday: 41 °F (at 2:53 pm)
Minimum temperature yesterday: 15 °F (at 6:53 am)
Average temperature yesterday: 28 °F

High & Low Weather Summary for the Past Weeks

 TemperatureHumidityPressure
High66 °F (Nov 20, 12:53 pm)100% (Nov 22, 7:53 am)30.44 "Hg (Nov 22, 7:53 am)
Low15 °F (Nov 30, 6:53 am)6% (Nov 25, 1:53 pm)29.24 "Hg (Nov 27, 12:53 pm)
Average37 °F45%29.96 "Hg
* Reported Nov 19 3:53 pm — Dec 4 3:53 pm, Centennial, Weather by CustomWeather, © 2016

Note: Actual official high and low records may vary slightly from our data, if they occured in-between our weather recording intervals... More about our weather records

Advertising

Centennial Weather History for the Previous 24 Hours

Scroll right to see more
 ConditionsComfort  
Time TempWeatherWind HumidityBarometerVisibility
3:53 pm
Sun, Dec 4
49 °FBroken clouds.8 mph20%29.87 "Hg10 mi
2:53 pm52 °FScattered clouds.7 mph15%29.88 "Hg10 mi
1:53 pm52 °FPassing clouds.7 mph15%29.88 "Hg10 mi
12:53 pm52 °FPassing clouds.6 mph14%29.89 "Hg10 mi
11:53 am50 °FPassing clouds.No wind14%29.93 "Hg10 mi
10:53 am46 °FPassing clouds.8 mph15%29.98 "Hg10 mi
9:53 am43 °FPassing clouds.5 mph17%30.02 "Hg10 mi
8:53 am34 °FPassing clouds.7 mph29%30.10 "Hg10 mi
7:53 am25 °FPassing clouds.9 mph42%30.11 "Hg10 mi
6:53 am16 °FPassing clouds.10 mph62%30.15 "Hg10 mi
5:53 am17 °FPassing clouds.7 mph64%30.14 "Hg10 mi
4:53 am17 °FClear.8 mph62%30.12 "Hg10 mi
3:53 am18 °FClear.12 mph57%30.09 "Hg10 mi
2:53 am16 °FClear.7 mph65%30.11 "Hg10 mi
1:53 am19 °FClear.6 mph57%30.11 "Hg10 mi
12:53 am23 °FClear.6 mph50%30.12 "Hg10 mi
11:53 pm
Sat, Dec 3
23 °FClear.6 mph53%30.11 "Hg10 mi
10:53 pm25 °FPassing clouds.5 mph46%30.12 "Hg10 mi
9:53 pm26 °FPassing clouds.5 mph46%30.13 "Hg10 mi
8:53 pm22 °FPassing clouds.7 mph62%30.18 "Hg10 mi
7:53 pm28 °FPassing clouds.No wind53%30.16 "Hg10 mi
6:53 pm30 °FPassing clouds.No wind47%30.16 "Hg10 mi
5:53 pm31 °FPassing clouds.6 mph43%30.11 "Hg10 mi
Weather by CustomWeather, © 2016

See weather overviewHow to use our weather pages